period_start,C,m1,H,J0,J1,J2,J3,J4,J5,JA,JB,JC,JD,JJ,JK,JN,#
2017-11-30 00:03:07,0.05,0.14,0.00,9.23,13.24,15.80,14.86,47.14,1029.99,2083.98,3545.13,3135.67,3597.00,599.82,632.98,7.20,0000 0000 0000 0000 000000
2017-11-30 00:08:08,-0.00,0.14,0.00,9.19,13.16,15.75,14.90,47.16,1029.89,2084.01,3545.01,3135.91,3596.99,600.14,633.40,7.25,0000 0000 0000 0000 000000
2017-11-30 00:13:09,0.04,0.14,0.00,9.12,13.09,15.78,14.83,47.12,1029.87,2084.31,3545.01,3135.98,3597.01,599.96,633.44,7.31,0000 0000 0000 0000 000000
2017-11-30 00:18:11,0.04,0.15,0.00,9.07,13.01,15.62,14.78,47.12,1029.88,2084.92,3545.00,3135.99,3597.01,599.70,633.30,7.36,0000 0000 0000 0000 000000
2017-11-30 00:23:12,0.00,0.15,0.00,9.04,12.94,15.73,14.88,47.23,1029.83,2084.99,3544.95,3135.99,3597.00,599.91,633.62,7.41,0000 0000 0000 0000 000000
2017-11-30 00:28:14,0.00,0.15,0.00,9.06,12.86,15.99,14.88,47.17,1029.81,2085.06,3544.90,3135.99,3597.05,599.96,633.59,7.46,0000 0000 0000 0000 000000
2017-11-30 00:33:15,0.07,0.15,0.00,9.31,12.79,16.06,14.84,47.16,1029.80,2085.72,3544.83,3136.03,3597.16,599.90,632.93,7.51,0000 0000 0000 0000 000000
2017-11-30 00:38:16,0.02,0.15,0.00,9.52,12.73,16.04,14.86,47.06,1029.80,2085.98,3544.06,3136.00,3597.04,600.28,632.85,7.56,0000 0000 0000 0000 000000
2017-11-30 00:43:17,0.01,0.15,0.00,9.62,12.68,15.88,14.80,47.04,1029.80,2086.00,3543.32,3135.99,3597.00,600.03,632.27,7.61,0000 0000 0000 0000 000000
2017-11-30 00:48:19,0.01,0.15,0.00,9.75,12.65,15.66,14.65,47.02,1029.80,2086.06,3542.92,3135.94,3596.96,599.97,632.00,7.66,0000 0000 0000 0000 000000
2017-11-30 00:53:20,0.09,0.16,0.00,9.93,12.62,15.68,14.59,46.91,1029.63,2086.48,3542.12,3135.26,3596.37,599.72,631.20,7.71,0000 0000 0000 0000 000000
2017-11-30 00:58:21,0.04,0.16,0.00,9.88,12.62,15.63,14.77,46.92,1029.55,2086.85,3541.58,3135.01,3595.98,600.18,631.85,7.76,0000 0000 0000 0000 000000
2017-11-30 01:03:23,0.03,0.16,0.00,9.77,12.61,15.77,14.82,47.01,1029.68,2086.89,3540.69,3134.85,3595.21,600.26,632.06,7.81,0000 0000 0000 0000 000000
2017-11-30 01:08:24,0.04,0.16,0.00,9.69,12.59,16.05,14.81,47.09,1029.63,2086.96,3539.76,3134.06,3594.69,600.28,632.37,7.86,0000 0000 0000 0000 000000
2017-11-30 01:13:26,0.03,0.16,0.00,9.59,12.59,16.20,14.87,47.08,1029.37,2086.96,3538.87,3133.79,3593.99,600.19,632.47,7.91,0000 0000 0000 0000 000000
2017-11-30 01:18:27,0.04,0.17,0.00,9.50,12.58,16.19,14.81,47.10,1029.33,2086.99,3538.03,3133.07,3593.29,599.73,631.83,7.96,0000 0000 0000 0000 000000
2017-11-30 01:23:28,0.01,0.17,0.00,9.40,12.56,16.10,14.86,47.10,1029.41,2086.99,3537.17,3132.92,3592.94,599.99,632.58,8.01,0000 0000 0000 0000 000000
2017-11-30 01:28:30,0.05,0.17,0.00,9.30,12.54,16.04,14.86,47.10,1029.36,2086.99,3536.27,3132.14,3592.11,600.13,632.97,8.06,0000 0000 0000 0000 000000
2017-11-30 01:33:31,0.02,0.17,0.00,9.22,12.52,15.95,14.83,47.13,1029.31,2087.01,3535.59,3131.98,3591.71,600.05,633.05,8.11,0000 0000 0000 0000 000000
2017-11-30 01:38:32,0.03,0.17,0.00,9.13,12.49,15.85,14.81,47.10,1029.31,2087.04,3534.89,3131.61,3591.07,600.18,633.39,8.16,0000 0000 0000 0000 000000
2017-11-30 01:43:34,0.02,0.17,0.00,9.04,12.47,15.73,14.82,47.13,1029.31,2087.08,3534.18,3131.08,3590.91,599.83,633.16,8.21,0000 0000 0000 0000 000000
2017-11-30 01:48:35,0.06,0.18,0.00,8.97,12.43,15.65,14.80,47.10,1029.31,2087.26,3533.48,3130.97,3590.25,599.76,633.31,8.26,0000 0000 0000 0000 000000
2017-11-30 01:53:36,0.05,0.18,0.00,8.92,12.40,15.58,14.84,47.17,1029.00,2087.70,3532.97,3130.47,3590.00,599.92,633.25,8.31,0000 0000 0000 0000 000000
2017-11-30 01:58:37,0.04,0.18,0.00,8.84,12.36,15.52,14.94,47.23,1028.82,2087.93,3532.19,3130.03,3589.43,599.96,633.46,8.36,0000 0000 0000 0000 000000
2017-11-30 02:03:39,0.01,0.18,0.00,8.78,12.32,15.47,14.77,47.11,1028.48,2087.98,3531.89,3129.99,3589.02,599.85,633.28,8.41,0000 0000 0000 0000 000000
2017-11-30 02:08:40,0.01,0.18,0.00,8.68,12.28,15.40,14.99,47.26,1028.31,2087.99,3531.16,3129.99,3589.00,600.25,633.76,8.46,0000 0000 0000 0000 000000
2017-11-30 02:13:41,0.00,0.18,0.00,8.61,12.24,15.35,14.94,47.46,1027.93,2088.00,3531.00,3129.98,3589.00,600.18,633.64,8.51,0000 0000 0000 0000 000000
2017-11-30 02:18:43,0.01,0.18,0.00,8.53,12.19,15.18,14.77,47.39,1027.86,2088.09,3530.99,3129.99,3589.00,599.63,633.21,8.56,0000 0000 0000 0000 000000
2017-11-30 02:23:44,0.03,0.19,0.00,8.46,12.15,15.15,14.82,47.34,1027.81,2088.46,3530.98,3129.99,3589.00,599.83,633.55,8.61,0000 0000 0000 0000 000000
2017-11-30 02:28:45,0.04,0.19,0.00,8.39,12.10,15.04,14.86,47.34,1027.81,2088.92,3530.90,3129.99,3589.00,600.16,634.09,8.66,0000 0000 0000 0000 000000
2017-11-30 02:33:46,0.01,0.19,0.00,8.33,12.05,15.01,14.76,47.37,1027.78,2088.98,3530.31,3129.99,3588.99,599.65,633.61,8.71,0000 0000 0000 0000 000000
2017-11-30 02:38:48,0.00,0.19,0.00,8.27,12.00,14.94,14.83,47.45,1027.82,2088.99,3530.05,3129.99,3588.99,600.03,634.28,8.76,0000 0000 0000 0000 000000
2017-11-30 02:43:49,0.00,0.19,0.00,8.20,11.94,14.87,14.91,47.40,1027.85,2089.00,3530.07,3130.00,3589.00,599.95,634.25,8.81,0000 0000 0000 0000 000000
2017-11-30 02:48:50,0.01,0.19,0.00,8.14,11.89,14.79,14.88,47.39,1027.85,2089.18,3530.09,3130.02,3589.02,600.21,634.63,8.86,0000 0000 0000 0000 000000
2017-11-30 02:53:52,0.04,0.19,0.00,8.10,11.83,14.62,14.80,47.23,1027.87,2089.68,3530.11,3130.09,3589.05,599.73,634.27,8.91,0000 0000 0000 0000 000000
2017-11-30 02:58:53,0.00,0.19,0.00,8.06,11.77,14.67,14.81,47.30,1027.85,2089.94,3530.07,3130.33,3589.22,599.74,634.30,8.96,0000 0000 0000 0000 000000
2017-11-30 03:03:54,-0.01,0.19,0.00,8.00,11.72,14.66,14.89,47.38,1027.54,2089.99,3530.16,3130.80,3589.43,600.32,634.92,9.01,0000 0000 0000 0000 000000
2017-11-30 03:08:56,-0.01,0.19,0.00,7.95,11.66,14.53,14.82,47.28,1027.44,2090.01,3530.49,3130.98,3589.89,599.56,634.26,9.06,0000 0000 0000 0000 000000
2017-11-30 03:13:57,0.01,0.19,0.00,7.90,11.61,14.52,14.91,47.31,1027.46,2090.09,3530.67,3130.99,3589.97,600.00,634.67,9.11,0000 0000 0000 0000 000000
2017-11-30 03:18:58,0.05,0.19,0.00,7.86,11.55,14.47,14.76,47.24,1027.43,2090.58,3530.53,3131.00,3589.98,599.60,634.35,9.16,0000 0000 0000 0000 000000
2017-11-30 03:24:00,0.01,0.19,0.00,7.78,11.49,14.36,14.90,47.36,1027.39,2090.94,3530.77,3131.03,3589.99,599.92,634.94,9.21,0000 0000 0000 0000 000000
2017-11-30 03:29:01,-0.00,0.19,0.00,7.72,11.43,14.34,14.95,47.45,1027.36,2090.99,3530.89,3131.14,3589.99,599.80,634.90,9.26,0000 0000 0000 0000 000000
2017-11-30 03:34:02,-0.01,0.19,0.00,7.67,11.37,14.31,14.93,47.47,1027.33,2091.01,3530.92,3131.64,3590.03,600.00,635.16,9.31,0000 0000 0000 0000 000000
2017-11-30 03:39:04,0.00,0.19,0.00,7.61,11.31,14.28,14.89,47.46,1027.04,2091.08,3530.91,3131.94,3590.14,600.14,635.31,9.36,0000 0000 0000 0000 000000
2017-11-30 03:44:05,0.04,0.20,0.00,7.56,11.25,14.22,14.87,47.37,1027.11,2091.63,3530.89,3131.97,3590.51,600.07,635.40,9.41,0000 0000 0000 0000 000000
2017-11-30 03:49:07,0.02,0.20,0.00,7.52,11.20,14.14,14.94,47.46,1026.90,2091.93,3530.47,3131.99,3590.85,600.57,635.93,9.46,0000 0000 0000 0000 000000
2017-11-30 03:54:08,0.00,0.20,0.00,7.46,11.14,14.16,14.86,47.33,1026.87,2091.99,3530.12,3131.99,3590.98,600.08,635.46,9.52,0000 0000 0000 0000 000000
2017-11-30 03:59:09,0.00,0.20,0.00,7.42,11.08,14.10,14.96,47.36,1026.86,2092.04,3530.27,3132.02,3590.99,600.26,635.75,9.57,0000 0000 0000 0000 000000
2017-11-30 04:04:10,0.04,0.20,0.00,7.37,11.02,13.98,15.04,47.38,1026.86,2092.50,3530.48,3132.08,3591.02,600.29,635.96,9.62,0000 0000 0000 0000 000000
2017-11-30 04:09:12,0.01,0.20,0.00,7.32,10.97,13.98,14.92,47.36,1026.87,2092.89,3530.61,3132.33,3591.09,599.79,635.57,9.67,0000 0000 0000 0000 000000
2017-11-30 04:14:13,-0.01,0.20,0.00,7.28,10.91,13.89,14.91,47.37,1026.85,2092.99,3530.89,3132.84,3591.45,600.15,635.96,9.72,0000 0000 0000 0000 000000
2017-11-30 04:19:14,-0.00,0.20,0.00,7.24,10.85,13.85,14.95,47.48,1026.83,2093.01,3530.97,3132.98,3591.93,599.94,635.81,9.77,0000 0000 0000 0000 000000
2017-11-30 04:24:15,0.00,0.20,0.00,7.21,10.80,13.80,14.85,47.47,1026.87,2093.07,3530.96,3132.98,3591.95,599.97,635.74,9.82,0000 0000 0000 0000 000000
2017-11-30 04:29:17,0.05,0.20,0.00,7.16,10.74,13.83,14.90,47.43,1026.86,2093.55,3530.97,3133.01,3591.99,599.82,635.91,9.87,0000 0000 0000 0000 000000
2017-11-30 04:34:18,0.02,0.20,0.00,7.10,10.69,13.77,14.92,47.51,1026.67,2093.94,3530.98,3133.04,3591.99,600.11,636.19,9.92,0000 0000 0000 0000 000000
2017-11-30 04:39:19,-0.00,0.20,0.00,7.07,10.64,13.66,14.91,47.48,1026.48,2093.99,3530.98,3133.24,3592.02,600.23,636.20,9.97,0000 0000 0000 0000 000000
2017-11-30 04:44:20,-0.01,0.20,0.00,7.02,10.58,13.61,14.90,47.57,1026.39,2094.00,3530.98,3133.61,3592.07,599.88,635.87,10.02,0000 0000 0000 0000 000000
2017-11-30 04:49:22,0.00,0.20,0.00,6.96,10.53,13.63,14.91,47.54,1026.34,2094.16,3530.99,3133.88,3592.33,599.75,635.93,10.07,0000 0000 0000 0000 000000
2017-11-30 04:54:23,0.04,0.21,0.00,6.95,10.48,13.54,14.90,47.57,1025.92,2094.66,3530.99,3133.99,3592.57,600.07,635.99,10.12,0000 0000 0000 0000 000000
2017-11-30 04:59:24,0.01,0.21,0.00,6.89,10.43,13.50,14.86,47.63,1025.72,2094.94,3531.01,3134.00,3592.79,599.81,635.79,10.17,0000 0000 0000 0000 000000
2017-11-30 05:04:26,0.00,0.21,0.00,6.85,10.38,13.44,14.87,47.56,1025.85,2094.99,3531.00,3134.01,3592.95,599.99,636.01,10.22,0000 0000 0000 0000 000000
2017-11-30 05:09:27,0.00,0.21,0.00,6.82,10.33,13.42,14.80,47.53,1025.87,2094.99,3531.00,3134.05,3592.99,599.93,636.23,10.27,0000 0000 0000 0000 000000
2017-11-30 05:14:29,0.00,0.21,0.00,6.78,10.27,13.35,14.93,47.61,1025.59,2095.10,3531.03,3134.39,3593.02,599.92,636.06,10.32,0000 0000 0000 0000 000000
2017-11-30 05:19:30,0.03,0.21,0.00,6.72,10.22,13.28,14.95,47.59,1025.42,2095.54,3531.02,3134.88,3593.06,599.94,636.07,10.37,0000 0000 0000 0000 000000
2017-11-30 05:24:32,0.02,0.21,0.00,6.68,10.17,13.30,14.95,47.40,1025.41,2095.93,3531.05,3134.98,3593.24,600.00,636.19,10.42,0000 0000 0000 0000 000000
2017-11-30 05:29:33,-0.00,0.21,0.00,6.64,10.12,13.27,14.91,47.54,1025.41,2095.98,3531.08,3134.99,3593.63,600.05,636.43,10.47,0000 0000 0000 0000 000000
2017-11-30 05:34:34,-0.00,0.21,0.00,6.61,10.07,13.18,15.05,47.52,1025.41,2095.99,3531.12,3134.99,3593.85,600.16,636.58,10.52,0000 0000 0000 0000 000000
2017-11-30 05:39:36,-0.00,0.21,0.00,6.58,10.02,13.15,15.00,47.49,1025.41,2096.03,3531.24,3134.99,3593.97,600.31,636.81,10.57,0000 0000 0000 0000 000000
2017-11-30 05:44:37,0.03,0.21,0.00,6.53,9.97,13.14,15.07,47.58,1025.41,2096.30,3531.61,3135.03,3593.99,600.34,636.96,10.62,0000 0000 0000 0000 000000
2017-11-30 05:49:38,0.03,0.21,0.00,6.50,9.93,13.07,14.88,47.56,1025.41,2096.85,3531.68,3135.18,3594.01,599.73,636.28,10.67,0000 0000 0000 0000 000000
2017-11-30 05:54:40,-0.01,0.21,0.00,6.47,9.88,13.05,14.91,47.58,1025.41,2096.96,3531.70,3135.62,3594.04,599.86,636.64,10.72,0000 0000 0000 0000 000000
2017-11-30 05:59:41,-0.00,0.21,0.00,6.42,9.84,12.99,14.95,47.57,1025.41,2096.99,3531.76,3135.91,3594.09,600.34,637.24,10.77,0000 0000 0000 0000 000000
2017-11-30 06:04:42,-0.00,0.21,0.00,6.37,9.79,12.93,15.02,47.54,1025.40,2097.02,3531.73,3135.97,3594.33,600.36,637.41,10.82,0000 0000 0000 0000 000000
2017-11-30 06:09:43,0.02,0.21,0.00,6.36,9.74,12.92,14.97,47.67,1025.06,2097.14,3531.58,3135.99,3594.75,599.93,636.62,10.87,0000 0000 0000 0000 000000
2017-11-30 06:14:44,0.05,0.21,0.00,6.31,9.70,12.90,14.88,47.73,1024.92,2097.71,3531.09,3135.99,3594.74,599.64,636.36,10.92,0000 0000 0000 0000 000000
2017-11-30 06:19:46,0.01,0.22,0.00,6.29,9.65,12.87,14.98,47.77,1024.91,2097.95,3531.01,3135.99,3594.84,600.19,636.89,10.97,0000 0000 0000 0000 000000
2017-11-30 06:24:47,0.00,0.22,0.00,6.25,9.60,12.83,14.97,47.67,1024.88,2097.99,3531.00,3135.99,3594.75,599.86,636.76,11.02,0000 0000 0000 0000 000000
2017-11-30 06:29:48,0.00,0.22,0.00,6.20,9.56,12.81,14.99,47.74,1024.86,2098.00,3530.99,3135.99,3594.74,599.95,636.88,11.07,0000 0000 0000 0000 000000
2017-11-30 06:34:49,0.00,0.22,0.00,6.15,9.51,12.74,14.93,47.65,1024.90,2098.02,3530.95,3136.00,3594.59,599.89,636.96,11.12,0000 0000 0000 0000 000000
2017-11-30 06:39:51,0.02,0.22,0.00,6.11,9.47,12.72,15.03,47.64,1024.91,2098.27,3530.95,3136.06,3594.88,600.12,637.49,11.17,0000 0000 0000 0000 000000
2017-11-30 06:44:52,0.04,0.22,0.00,6.07,9.42,12.69,14.89,47.65,1024.85,2098.78,3530.87,3136.11,3594.95,599.98,637.15,11.22,0000 0000 0000 0000 000000
2017-11-30 06:49:53,0.00,0.22,0.00,6.04,9.37,12.66,15.01,47.77,1024.65,2098.96,3530.81,3136.36,3594.96,599.92,637.16,11.27,0000 0000 0000 0000 000000
2017-11-30 06:54:55,0.00,0.22,0.00,5.99,9.33,12.56,14.95,47.70,1024.51,2098.99,3530.49,3136.65,3594.98,600.08,637.29,11.32,0000 0000 0000 0000 000000
2017-11-30 06:59:56,-0.00,0.22,0.00,5.96,9.28,12.51,14.99,47.69,1024.45,2099.00,3530.09,3136.81,3594.98,600.31,637.57,11.37,0000 0000 0000 0000 000000
2017-11-30 07:04:57,0.00,0.22,0.00,5.94,9.24,12.51,14.87,47.68,1024.43,2099.04,3530.04,3136.93,3594.99,599.95,637.29,11.42,0000 0000 0000 0000 000000
2017-11-30 07:09:59,0.04,0.22,0.00,5.90,9.20,12.46,14.97,47.76,1024.43,2099.35,3530.04,3136.98,3594.99,600.05,637.49,11.47,0000 0000 0000 0000 000000
2017-11-30 07:15:00,0.04,0.22,0.00,5.87,9.15,12.45,14.95,47.82,1024.32,2099.91,3530.05,3136.99,3595.00,600.03,637.42,11.52,0000 0000 0000 0000 000000
2017-11-30 07:20:01,0.00,0.22,0.00,5.81,9.11,12.43,15.01,47.91,1024.04,2099.99,3530.03,3137.00,3595.01,599.95,637.37,11.57,0000 0000 0000 0000 000000
2017-11-30 07:25:03,0.00,0.22,0.00,5.78,9.07,12.35,15.04,47.91,1023.99,2099.99,3529.80,3137.00,3594.97,600.29,637.77,11.62,0000 0000 0000 0000 000000
2017-11-30 07:30:04,0.02,0.23,0.00,5.74,9.03,12.31,14.97,47.92,1023.98,2100.02,3529.11,3136.99,3594.42,600.16,637.68,11.67,0000 0000 0000 0000 000000
2017-11-30 07:35:05,0.02,0.23,0.00,5.71,8.99,12.27,14.89,47.92,1023.94,2100.18,3528.97,3136.99,3594.01,599.92,637.39,11.73,0000 0000 0000 0000 000000
2017-11-30 07:40:06,0.04,0.23,0.00,5.68,8.95,12.24,14.92,48.06,1023.91,2100.63,3528.57,3136.99,3593.98,599.68,637.45,11.78,0000 0000 0000 0000 000000
2017-11-30 07:45:08,0.03,0.23,0.00,5.64,8.91,12.22,14.94,48.13,1023.77,2100.89,3528.04,3136.99,3593.61,600.04,637.69,11.83,0000 0000 0000 0000 000000
2017-11-30 07:50:09,0.01,0.23,0.00,5.60,8.87,12.15,14.91,48.18,1023.63,2100.99,3527.77,3136.98,3593.06,599.91,637.58,11.88,0000 0000 0000 0000 000000
2017-11-30 07:55:10,0.02,0.23,0.00,5.56,8.83,12.20,14.97,48.23,1023.69,2100.99,3527.04,3136.90,3592.66,599.83,637.56,11.93,0000 0000 0000 0000 000000
2017-11-30 08:00:11,0.04,0.24,0.00,5.55,8.79,12.13,14.94,48.14,1023.67,2101.01,3526.28,3136.23,3592.01,599.88,637.67,11.98,0000 0000 0000 0000 000000
2017-11-30 08:05:12,0.07,0.24,0.00,5.50,8.75,12.05,14.99,48.26,1023.46,2101.23,3525.16,3135.84,3590.90,600.12,637.75,12.03,0000 0000 0000 0000 000000
2017-11-30 08:10:14,0.10,0.24,0.00,5.47,8.70,12.01,14.97,48.12,1023.45,2101.72,3523.48,3135.01,3589.13,599.70,637.48,12.08,0000 0000 0000 0000 000000
2017-11-30 08:15:15,0.08,0.25,0.00,5.45,8.66,12.03,14.91,48.23,1023.42,2101.95,3522.21,3134.23,3587.74,599.73,637.49,12.13,0000 0000 0000 0000 000000
2017-11-30 08:20:16,0.05,0.25,0.00,5.39,8.62,12.00,14.96,48.20,1023.23,2101.99,3521.17,3133.66,3586.57,600.09,637.94,12.18,0000 0000 0000 0000 000000
2017-11-30 08:25:17,0.02,0.25,0.00,5.36,8.58,11.94,14.94,48.05,1023.43,2101.99,3520.45,3133.08,3585.74,600.04,638.07,12.23,0000 0000 0000 0000 000000
2017-11-30 08:30:19,0.02,0.25,0.00,5.35,8.54,11.89,15.04,48.14,1023.38,2102.01,3519.77,3132.90,3584.94,600.20,638.25,12.28,0000 0000 0000 0000 000000
2017-11-30 08:35:20,0.04,0.26,0.00,5.30,8.50,11.88,14.98,48.05,1023.17,2102.08,3519.04,3132.21,3584.10,599.89,637.89,12.33,0000 0000 0000 0000 000000
2017-11-30 08:40:21,0.07,0.26,0.00,5.28,8.46,11.87,15.00,48.08,1023.18,2102.48,3518.50,3131.85,3583.42,600.01,638.09,12.38,0000 0000 0000 0000 000000
2017-11-30 08:45:22,0.06,0.26,0.00,5.23,8.42,11.79,14.95,47.99,1023.18,2102.86,3517.69,3131.04,3582.32,599.99,638.19,12.43,0000 0000 0000 0000 000000
2017-11-30 08:50:24,0.03,0.27,0.00,5.20,8.38,11.78,15.00,48.17,1023.01,2102.97,3517.03,3130.69,3581.82,600.01,638.14,12.48,0000 0000 0000 0000 000000
2017-11-30 08:55:25,0.03,0.27,0.00,5.17,8.34,11.74,14.99,48.19,1022.96,2102.99,3516.40,3130.04,3580.98,600.07,638.23,12.53,0000 0000 0000 0000 000000
2017-11-30 09:00:26,0.03,0.27,0.00,5.14,8.30,11.70,15.01,48.12,1022.87,2103.00,3515.95,3129.65,3580.15,599.95,638.08,12.58,0000 0000 0000 0000 000000
2017-11-30 09:05:27,0.04,0.27,0.00,5.10,8.26,11.66,14.95,48.26,1022.54,2103.02,3515.05,3129.01,3579.15,599.82,637.90,12.63,0000 0000 0000 0000 000000
2017-11-30 09:10:29,0.06,0.27,0.00,5.06,8.23,11.64,15.03,48.19,1022.48,2103.08,3513.94,3128.29,3577.94,600.10,638.22,12.68,0000 0000 0000 0000 000000
2017-11-30 09:15:30,0.08,0.28,0.00,5.02,8.19,11.64,14.95,48.12,1022.48,2103.50,3513.06,3127.69,3577.03,599.86,638.07,12.73,0000 0000 0000 0000 000000
2017-11-30 09:20:31,0.06,0.28,0.00,4.99,8.15,11.58,15.01,48.17,1022.48,2103.90,3512.58,3127.05,3576.30,600.08,638.32,12.78,0000 0000 0000 0000 000000
2017-11-30 09:25:33,0.04,0.28,0.00,4.95,8.11,11.52,15.05,48.19,1022.48,2103.97,3512.01,3126.55,3575.58,600.28,638.67,12.83,0000 0000 0000 0000 000000
2017-11-30 09:30:34,0.02,0.29,0.00,4.91,8.07,11.48,14.98,48.15,1022.51,2103.99,3511.52,3126.02,3574.99,599.97,638.45,12.88,0000 0000 0000 0000 000000
2017-11-30 09:35:36,0.01,0.29,0.00,4.90,8.03,11.44,14.84,48.17,1022.52,2103.99,3511.02,3125.98,3574.54,599.76,638.32,12.93,0000 0000 0000 0000 000000
2017-11-30 09:40:37,0.00,0.29,0.00,4.86,7.99,11.43,14.99,48.11,1022.49,2103.99,3510.88,3125.98,3574.05,600.29,639.01,12.98,0000 0000 0000 0000 000000
2017-11-30 09:45:38,0.02,0.29,0.00,4.83,7.95,11.40,14.94,48.02,1022.58,2104.06,3510.17,3125.89,3574.00,599.89,638.65,13.03,0000 0000 0000 0000 000000
2017-11-30 09:50:40,0.04,0.29,0.00,4.81,7.92,11.39,15.06,48.02,1022.49,2104.41,3510.00,3125.94,3573.88,599.95,638.66,13.08,0000 0000 0000 0000 000000
2017-11-30 09:55:41,0.04,0.29,0.00,4.78,7.88,11.36,14.97,47.98,1022.48,2104.83,3509.95,3125.97,3573.45,599.78,638.57,13.13,0000 0000 0000 0000 000000
2017-11-30 10:00:43,0.02,0.29,0.00,4.73,7.85,11.30,14.98,48.08,1022.48,2104.93,3509.26,3125.87,3573.03,600.05,638.86,13.18,0000 0000 0000 0000 000000
2017-11-30 10:05:44,0.02,0.29,0.00,4.71,7.81,11.25,14.93,48.11,1022.48,2104.99,3509.00,3125.48,3572.99,599.82,638.76,13.23,0000 0000 0000 0000 000000
2017-11-30 10:10:46,0.01,0.29,0.00,4.67,7.77,11.24,15.05,48.08,1022.48,2104.99,3508.86,3125.03,3572.72,600.41,639.52,13.28,0000 0000 0000 0000 000000
2017-11-30 10:15:47,0.02,0.30,0.00,4.65,7.74,11.21,14.95,48.12,1022.48,2105.00,3508.11,3125.01,3572.08,599.87,638.93,13.33,0000 0000 0000 0000 000000
2017-11-30 10:20:48,0.00,0.30,0.00,4.61,7.70,11.21,15.00,48.09,1022.45,2105.02,3507.92,3124.99,3571.93,599.66,638.77,13.38,0000 0000 0000 0000 000000
2017-11-30 10:25:49,0.04,0.30,0.00,4.57,7.67,11.19,15.00,48.05,1022.36,2105.23,3507.31,3124.98,3571.60,599.99,639.14,13.43,0000 0000 0000 0000 000000
2017-11-30 10:30:51,0.04,0.30,0.00,4.56,7.63,11.14,15.01,47.97,1022.29,2105.62,3507.01,3124.98,3571.09,599.89,639.02,13.48,0000 0000 0000 0000 000000
2017-11-30 10:35:52,0.02,0.30,0.00,4.53,7.60,11.12,14.99,48.04,1022.09,2105.92,3506.90,3124.99,3571.00,600.19,639.48,13.53,0000 0000 0000 0000 000000
2017-11-30 10:40:53,0.01,0.30,0.00,4.50,7.56,11.09,15.02,48.06,1022.02,2105.96,3506.17,3124.98,3570.88,600.12,639.26,13.58,0000 0000 0000 0000 000000
2017-11-30 10:45:54,0.01,0.30,0.00,4.47,7.53,11.06,14.93,48.11,1022.05,2105.99,3505.99,3124.97,3570.31,599.88,639.10,13.63,0000 0000 0000 0000 000000
2017-11-30 10:50:56,0.01,0.30,0.00,4.45,7.50,10.99,14.94,48.15,1022.00,2105.99,3505.59,3124.98,3570.01,599.95,639.07,13.68,0000 0000 0000 0000 000000
2017-11-30 10:55:57,0.00,0.30,0.00,4.42,7.47,10.99,15.05,48.18,1021.99,2106.02,3505.03,3124.98,3569.99,600.27,639.53,13.73,0000 0000 0000 0000 000000
2017-11-30 11:00:58,0.02,0.30,0.00,4.40,7.44,10.92,15.05,48.25,1021.98,2106.07,3504.88,3124.97,3569.51,600.09,639.37,13.78,0000 0000 0000 0000 000000
2017-11-30 11:05:59,0.04,0.31,0.00,4.36,7.40,10.93,14.98,48.27,1021.98,2106.37,3504.15,3124.97,3569.06,599.88,639.32,13.83,0000 0000 0000 0000 000000
2017-11-30 11:11:01,0.04,0.31,0.00,4.34,7.38,10.82,14.94,48.17,1021.96,2106.72,3503.96,3124.96,3568.99,599.90,639.24,13.89,0000 0000 0000 0000 000000
2017-11-30 11:16:03,0.04,0.31,0.00,4.29,7.35,10.84,15.09,48.17,1021.83,2106.96,3503.25,3124.94,3568.56,600.13,639.59,13.94,0000 0000 0000 0000 000000
2017-11-30 11:21:04,0.01,0.31,0.00,4.28,7.32,10.85,14.98,48.25,1021.59,2106.99,3502.82,3124.78,3568.02,600.13,639.51,13.99,0000 0000 0000 0000 000000
2017-11-30 11:26:05,0.03,0.31,0.00,4.26,7.29,10.84,14.94,48.19,1021.70,2106.99,3502.07,3124.24,3567.63,599.80,639.33,14.04,0000 0000 0000 0000 000000
2017-11-30 11:31:06,0.01,0.31,0.00,4.23,7.26,10.78,15.01,48.16,1021.83,2106.99,3501.68,3124.06,3567.03,599.94,639.49,14.09,0000 0000 0000 0000 000000
2017-11-30 11:36:07,0.01,0.32,0.00,4.21,7.23,10.76,15.01,48.16,1021.70,2107.02,3501.04,3124.03,3566.62,599.94,639.58,14.14,0000 0000 0000 0000 000000
2017-11-30 11:41:09,0.01,0.32,0.00,4.18,7.20,10.77,15.02,48.28,1021.53,2107.03,3500.59,3124.00,3566.03,600.09,639.66,14.19,0000 0000 0000 0000 000000
2017-11-30 11:46:10,0.02,0.32,0.00,4.14,7.17,10.71,15.05,48.27,1021.55,2107.15,3500.02,3124.00,3565.77,600.09,639.82,14.24,0000 0000 0000 0000 000000
2017-11-30 11:51:12,0.06,0.32,0.00,4.13,7.14,10.67,14.92,48.27,1021.50,2107.57,3499.51,3124.00,3565.07,600.00,639.72,14.29,0000 0000 0000 0000 000000
2017-11-30 11:56:13,0.03,0.32,0.00,4.11,7.11,10.64,15.08,48.23,1021.51,2107.89,3498.98,3124.00,3564.76,600.20,639.88,14.34,0000 0000 0000 0000 000000
2017-11-30 12:01:14,0.04,0.32,0.00,4.07,7.09,10.64,15.14,48.34,1021.50,2107.97,3498.17,3123.68,3563.94,600.46,640.28,14.39,0000 0000 0000 0000 000000
2017-11-30 12:06:15,0.03,0.33,0.00,4.06,7.06,10.61,15.02,48.29,1021.50,2107.98,3497.29,3123.02,3563.09,600.03,639.84,14.44,0000 0000 0000 0000 000000
2017-11-30 12:11:17,0.02,0.33,0.00,4.06,7.03,10.59,15.00,48.18,1021.49,2107.99,3496.64,3122.99,3562.42,600.00,639.70,14.49,0000 0000 0000 0000 000000
2017-11-30 12:16:18,0.01,0.33,0.00,4.02,7.00,10.55,14.95,48.27,1021.37,2108.00,3496.02,3122.95,3561.92,599.72,639.56,14.54,0000 0000 0000 0000 000000
2017-11-30 12:21:19,0.04,0.33,0.00,4.00,6.98,10.52,15.07,48.28,1021.12,2108.03,3495.25,3122.61,3561.09,600.06,639.79,14.59,0000 0000 0000 0000 000000
2017-11-30 12:26:21,0.03,0.33,0.00,3.97,6.95,10.48,14.96,48.23,1021.10,2108.07,3494.75,3122.31,3560.59,599.66,639.60,14.64,0000 0000 0000 0000 000000
2017-11-30 12:31:22,0.26,0.34,0.00,3.96,6.92,10.50,15.03,48.23,1021.15,2108.24,3490.95,3120.47,3558.00,600.15,639.96,14.69,0000 0000 0000 0000 000000
2017-11-30 12:36:23,0.16,0.35,0.00,3.93,6.90,10.49,15.08,48.28,1021.10,2108.50,3484.39,3117.18,3554.01,600.37,640.26,14.74,0000 0000 0000 0000 000000
2017-11-30 12:41:25,0.05,0.36,0.00,3.92,6.87,10.43,14.96,48.28,1021.03,2108.84,3483.26,3117.00,3552.97,599.87,639.71,14.79,0000 0000 0000 0000 000000
2017-11-30 12:46:26,0.05,0.36,0.00,3.91,6.85,10.38,15.04,48.29,1021.02,2108.89,3482.17,3116.64,3551.98,600.16,639.93,14.84,0000 0000 0000 0000 000000
2017-11-30 12:51:27,0.11,0.36,0.00,3.88,6.82,10.39,14.98,48.35,1021.01,2108.97,3479.86,3115.35,3550.20,600.04,639.95,14.89,0000 0000 0000 0000 000000
2017-11-30 12:56:29,0.08,0.37,0.00,3.86,6.80,10.34,15.05,48.26,1021.01,2108.98,3477.69,3114.24,3548.50,600.04,640.01,14.94,0000 0000 0000 0000 000000
2017-11-30 13:01:30,0.08,0.37,0.00,3.85,6.77,10.36,15.03,48.35,1021.01,2108.99,3475.34,3113.11,3546.75,600.23,640.14,14.99,0000 0000 0000 0000 000000
2017-11-30 13:06:31,0.14,0.38,0.00,3.84,6.75,10.29,14.93,48.27,1021.01,2108.99,3472.30,3111.49,3544.38,599.36,639.49,15.04,0000 0000 0000 0000 000000